Location: Lanoux
(43.1180°N, 1.4255°E)
Time: 06:14:35
(UTC+00:00)

NOSS 2-3 (E) - Pass Details

Date: 13 December 2025
Orbit: 492 x 1706 km, 63.3° (Epoch: 24 April)

Event Time Altitude Azimuth Distance (km) Brightness Sun altitude
Rises 16:57:50 0° 211° (SSW) 2,657 7.9 -7.0°
Reaches altitude 10° 17:00:03 10° 210° (SSW) 1,715 6.8 -7.3°
Maximum altitude 17:03:44 76° 124° (SE) 511 3.1 -8.0°
Drops below altitude 10° 17:07:27 10° 39° (NE) 1,736 5.3 -8.6°
Enters shadow 17:07:43 - 39° (NE) 1,848 5.5 -8.6°
